GPS BIIF-10 (40730 NORAD) Tracking and Keplerian Element Data

This shows tracking and keplerian element data for the satellite.

Feedback or suggestion? Click here.




ElementValue
Catalog40730
NameGPS BIIF-10
Epoch Orbit6218
Epoch Day11.25634376
Epoch Year2024
RAAN303.4918
Inclination54.7352
Eccentricity0.0091081
Argument of Perigee15.7252
Mean Anonmoly344.58
Mean Motion2.0057521
Decay Rate-3.4E-07
L11 40730U 15033A 24011.25634376 -.00000034 00000+0 00000+0 0 9996
L22 40730 54.7352 303.4918 0091081 15.7252 344.5800 2.00575210 62184



Live tracking and technical data element details for GPS BIIF-10 (NORAD 40730). GPS BIIF-10 can be tracked NOW for your location showing map with azimuth and elevation plus other details from your city location.







IsCatalogInMostPopularTable: catalog: 40730, numindb: 938
Update: records affected: 1



GetName: 40730 GPS BIIF-10

Hit Count: updated at: Fri, 19 Apr 2024 12:37:56 GMT